Вернуться в каталог

COSMOS 2251 DEB

АктивенLEO
NORAD 34302·DEBRIS·🇷🇺 Russia

Запущен Jun 16, 1993 с Plesetsk Cosmodrome

Loading…

Ближайшие Пролёты (ближайшие 24 часа)

TLE

СвежийSource: Space-Track

Эпоха: Sep 14, 2026, 22:18 UTC

1 34302U 93036MY  26257.92958483  .00001832  00000-0  56474-3 0  9996
2 34302  74.1797 337.6332 0075076 114.4121   3.4649 14.40479508916964

Отслеживайте COSMOS 2251 DEB в реальном времени с AllMySat

Download on the App Store